Data supplied by UK-AIR on 27/11/2015
All Data GMT hour ending 
Status: R =Ratified P=Provisional,P*=As supplied
,,Aberdeen Union Street Roadside,,,,,,,,,,,,,,,,,,,,,,,
Date,time,"Nitric oxide",status,unit,"Nitrogen dioxide",status,unit,"Nitrogen oxides as nitrogen dioxide",status,unit
 
01-01-2012,01:00,7.00000,R,ugm-3,19.00000,R,ugm-3,31.00000,R,ugm-3
01-01-2012,02:00,12.00000,R,ugm-3,29.00000,R,ugm-3,48.00000,R,ugm-3
01-01-2012,03:00,7.00000,R,ugm-3,19.00000,R,ugm-3,31.00000,R,ugm-3
01-01-2012,04:00,5.00000,R,ugm-3,19.00000,R,ugm-3,27.00000,R,ugm-3
01-01-2012,05:00,6.00000,R,ugm-3,13.00000,R,ugm-3,23.00000,R,ugm-3
01-01-2012,06:00,2.00000,R,ugm-3,11.00000,R,ugm-3,15.00000,R,ugm-3
01-01-2012,07:00,1.00000,R,ugm-3,8.00000,R,ugm-3,10.00000,R,ugm-3
01-01-2012,08:00,1.00000,R,ugm-3,8.00000,R,ugm-3,10.00000,R,ugm-3
01-01-2012,09:00,2.00000,R,ugm-3,8.00000,R,ugm-3,11.00000,R,ugm-3
01-01-2012,10:00,1.00000,R,ugm-3,8.00000,R,ugm-3,10.00000,R,ugm-3
01-01-2012,11:00,2.00000,R,ugm-3,10.00000,R,ugm-3,13.00000,R,ugm-3
01-01-2012,12:00,2.00000,R,ugm-3,10.00000,R,ugm-3,13.00000,R,ugm-3
01-01-2012,13:00,2.00000,R,ugm-3,8.00000,R,ugm-3,11.00000,R,ugm-3
01-01-2012,14:00,2.00000,R,ugm-3,8.00000,R,ugm-3,11.00000,R,ugm-3
01-01-2012,15:00,5.00000,R,ugm-3,11.00000,R,ugm-3,19.00000,R,ugm-3
01-01-2012,16:00,2.00000,R,ugm-3,10.00000,R,ugm-3,13.00000,R,ugm-3
01-01-2012,17:00,2.00000,R,ugm-3,11.00000,R,ugm-3,15.00000,R,ugm-3
01-01-2012,18:00,4.00000,R,ugm-3,11.00000,R,ugm-3,17.00000,R,ugm-3
01-01-2012,19:00,4.00000,R,ugm-3,11.00000,R,ugm-3,17.00000,R,ugm-3
01-01-2012,20:00,6.00000,R,ugm-3,15.00000,R,ugm-3,25.00000,R,ugm-3
01-01-2012,21:00,4.00000,R,ugm-3,13.00000,R,ugm-3,19.00000,R,ugm-3
01-01-2012,22:00,4.00000,R,ugm-3,11.00000,R,ugm-3,17.00000,R,ugm-3
01-01-2012,23:00,4.00000,R,ugm-3,13.00000,R,ugm-3,19.00000,R,ugm-3
01-01-2012,24:00,1.00000,R,ugm-3,8.00000,R,ugm-3,10.00000,R,ugm-3
02-01-2012,01:00,1.00000,R,ugm-3,6.00000,R,ugm-3,8.00000,R,ugm-3
02-01-2012,02:00,1.00000,R,ugm-3,6.00000,R,ugm-3,8.00000,R,ugm-3
02-01-2012,03:00,1.00000,R,ugm-3,6.00000,R,ugm-3,8.00000,R,ugm-3
02-01-2012,04:00,2.00000,R,ugm-3,4.00000,R,ugm-3,8.00000,R,ugm-3
02-01-2012,05:00,1.00000,R,ugm-3,6.00000,R,ugm-3,8.00000,R,ugm-3
02-01-2012,06:00,2.00000,R,ugm-3,10.00000,R,ugm-3,13.00000,R,ugm-3
02-01-2012,07:00,17.00000,R,ugm-3,29.00000,R,ugm-3,55.00000,R,ugm-3
02-01-2012,08:00,25.00000,R,ugm-3,36.00000,R,ugm-3,75.00000,R,ugm-3
02-01-2012,09:00,15.00000,R,ugm-3,21.00000,R,ugm-3,44.00000,R,ugm-3
02-01-2012,10:00,16.00000,R,ugm-3,29.00000,R,ugm-3,54.00000,R,ugm-3
02-01-2012,11:00,21.00000,R,ugm-3,33.00000,R,ugm-3,65.00000,R,ugm-3
02-01-2012,12:00,15.00000,R,ugm-3,29.00000,R,ugm-3,52.00000,R,ugm-3
02-01-2012,13:00,24.00000,R,ugm-3,23.00000,R,ugm-3,59.00000,R,ugm-3
02-01-2012,14:00,24.00000,R,ugm-3,44.00000,R,ugm-3,80.00000,R,ugm-3
02-01-2012,15:00,22.00000,R,ugm-3,33.00000,R,ugm-3,67.00000,R,ugm-3
02-01-2012,16:00,25.00000,R,ugm-3,38.00000,R,ugm-3,77.00000,R,ugm-3
02-01-2012,17:00,14.00000,R,ugm-3,25.00000,R,ugm-3,46.00000,R,ugm-3
02-01-2012,18:00,21.00000,R,ugm-3,36.00000,R,ugm-3,69.00000,R,ugm-3
02-01-2012,19:00,21.00000,R,ugm-3,27.00000,R,ugm-3,59.00000,R,ugm-3
02-01-2012,20:00,17.00000,R,ugm-3,21.00000,R,ugm-3,48.00000,R,ugm-3
02-01-2012,21:00,10.00000,R,ugm-3,19.00000,R,ugm-3,34.00000,R,ugm-3
02-01-2012,22:00,11.00000,R,ugm-3,15.00000,R,ugm-3,33.00000,R,ugm-3
02-01-2012,23:00,6.00000,R,ugm-3,15.00000,R,ugm-3,25.00000,R,ugm-3
02-01-2012,24:00,6.00000,R,ugm-3,13.00000,R,ugm-3,23.00000,R,ugm-3
03-01-2012,01:00,4.00000,R,ugm-3,11.00000,R,ugm-3,17.00000,R,ugm-3
03-01-2012,02:00,2.00000,R,ugm-3,8.00000,R,ugm-3,11.00000,R,ugm-3
03-01-2012,03:00,2.00000,R,ugm-3,8.00000,R,ugm-3,11.00000,R,ugm-3
03-01-2012,04:00,2.00000,R,ugm-3,8.00000,R,ugm-3,11.00000,R,ugm-3
03-01-2012,05:00,1.00000,R,ugm-3,4.00000,R,ugm-3,6.00000,R,ugm-3
03-01-2012,06:00,2.00000,R,ugm-3,6.00000,R,ugm-3,10.00000,R,ugm-3
03-01-2012,07:00,4.00000,R,ugm-3,10.00000,R,ugm-3,15.00000,R,ugm-3
03-01-2012,08:00,5.00000,R,ugm-3,13.00000,R,ugm-3,21.00000,R,ugm-3
03-01-2012,09:00,6.00000,R,ugm-3,11.00000,R,ugm-3,21.00000,R,ugm-3
03-01-2012,10:00,19.00000,R,ugm-3,19.00000,R,ugm-3,48.00000,R,ugm-3
03-01-2012,11:00,52.00000,R,ugm-3,48.00000,R,ugm-3,128.00000,R,ugm-3
03-01-2012,12:00,31.00000,R,ugm-3,31.00000,R,ugm-3,78.00000,R,ugm-3
03-01-2012,13:00,24.00000,R,ugm-3,29.00000,R,ugm-3,65.00000,R,ugm-3
03-01-2012,14:00,34.00000,R,ugm-3,31.00000,R,ugm-3,82.00000,R,ugm-3
03-01-2012,15:00,39.00000,R,ugm-3,40.00000,R,ugm-3,99.00000,R,ugm-3
03-01-2012,16:00,36.00000,R,ugm-3,46.00000,R,ugm-3,101.00000,R,ugm-3
03-01-2012,17:00,39.00000,R,ugm-3,40.00000,R,ugm-3,99.00000,R,ugm-3
03-01-2012,18:00,39.00000,R,ugm-3,40.00000,R,ugm-3,99.00000,R,ugm-3
03-01-2012,19:00,29.00000,R,ugm-3,34.00000,R,ugm-3,78.00000,R,ugm-3
03-01-2012,20:00,26.00000,R,ugm-3,38.00000,R,ugm-3,78.00000,R,ugm-3
03-01-2012,21:00,16.00000,R,ugm-3,21.00000,R,ugm-3,46.00000,R,ugm-3
03-01-2012,22:00,19.00000,R,ugm-3,27.00000,R,ugm-3,55.00000,R,ugm-3
03-01-2012,23:00,20.00000,R,ugm-3,23.00000,R,ugm-3,54.00000,R,ugm-3
03-01-2012,24:00,10.00000,R,ugm-3,11.00000,R,ugm-3,27.00000,R,ugm-3
04-01-2012,01:00,6.00000,R,ugm-3,13.00000,R,ugm-3,23.00000,R,ugm-3
04-01-2012,02:00,2.00000,R,ugm-3,8.00000,R,ugm-3,11.00000,R,ugm-3
04-01-2012,03:00,2.00000,R,ugm-3,11.00000,R,ugm-3,15.00000,R,ugm-3
04-01-2012,04:00,1.00000,R,ugm-3,8.00000,R,ugm-3,10.00000,R,ugm-3
04-01-2012,05:00,2.00000,R,ugm-3,11.00000,R,ugm-3,15.00000,R,ugm-3
04-01-2012,06:00,9.00000,R,ugm-3,19.00000,R,ugm-3,33.00000,R,ugm-3
04-01-2012,07:00,35.00000,R,ugm-3,40.00000,R,ugm-3,94.00000,R,ugm-3
04-01-2012,08:00,92.00000,R,ugm-3,71.00000,R,ugm-3,212.00000,R,ugm-3
04-01-2012,09:00,91.00000,R,ugm-3,69.00000,R,ugm-3,208.00000,R,ugm-3
04-01-2012,10:00,115.00000,R,ugm-3,59.00000,R,ugm-3,235.00000,R,ugm-3
04-01-2012,11:00,,,,,,,,,
04-01-2012,12:00,131.00000,R,ugm-3,75.00000,R,ugm-3,275.00000,R,ugm-3
04-01-2012,13:00,74.00000,R,ugm-3,65.00000,R,ugm-3,178.00000,R,ugm-3
04-01-2012,14:00,41.00000,R,ugm-3,59.00000,R,ugm-3,122.00000,R,ugm-3
04-01-2012,15:00,42.00000,R,ugm-3,46.00000,R,ugm-3,111.00000,R,ugm-3
04-01-2012,16:00,39.00000,R,ugm-3,52.00000,R,ugm-3,111.00000,R,ugm-3
04-01-2012,17:00,39.00000,R,ugm-3,57.00000,R,ugm-3,117.00000,R,ugm-3
04-01-2012,18:00,49.00000,R,ugm-3,54.00000,R,ugm-3,128.00000,R,ugm-3
04-01-2012,19:00,27.00000,R,ugm-3,42.00000,R,ugm-3,84.00000,R,ugm-3
04-01-2012,20:00,37.00000,R,ugm-3,54.00000,R,ugm-3,111.00000,R,ugm-3
04-01-2012,21:00,31.00000,R,ugm-3,38.00000,R,ugm-3,86.00000,R,ugm-3
04-01-2012,22:00,21.00000,R,ugm-3,33.00000,R,ugm-3,65.00000,R,ugm-3
04-01-2012,23:00,22.00000,R,ugm-3,36.00000,R,ugm-3,71.00000,R,ugm-3
04-01-2012,24:00,25.00000,R,ugm-3,31.00000,R,ugm-3,69.00000,R,ugm-3
05-01-2012,01:00,12.00000,R,ugm-3,27.00000,R,ugm-3,46.00000,R,ugm-3
05-01-2012,02:00,5.00000,R,ugm-3,11.00000,R,ugm-3,19.00000,R,ugm-3
05-01-2012,03:00,4.00000,R,ugm-3,11.00000,R,ugm-3,17.00000,R,ugm-3
05-01-2012,04:00,2.00000,R,ugm-3,6.00000,R,ugm-3,10.00000,R,ugm-3
05-01-2012,05:00,2.00000,R,ugm-3,11.00000,R,ugm-3,15.00000,R,ugm-3
05-01-2012,06:00,4.00000,R,ugm-3,11.00000,R,ugm-3,17.00000,R,ugm-3
05-01-2012,07:00,24.00000,R,ugm-3,33.00000,R,ugm-3,69.00000,R,ugm-3
05-01-2012,08:00,61.00000,R,ugm-3,65.00000,R,ugm-3,159.00000,R,ugm-3
05-01-2012,09:00,61.00000,R,ugm-3,57.00000,R,ugm-3,151.00000,R,ugm-3
05-01-2012,10:00,56.00000,R,ugm-3,52.00000,R,ugm-3,138.00000,R,ugm-3
05-01-2012,11:00,34.00000,R,ugm-3,46.00000,R,ugm-3,98.00000,R,ugm-3
05-01-2012,12:00,40.00000,R,ugm-3,42.00000,R,ugm-3,103.00000,R,ugm-3
05-01-2012,13:00,27.00000,R,ugm-3,38.00000,R,ugm-3,80.00000,R,ugm-3
05-01-2012,14:00,34.00000,R,ugm-3,42.00000,R,ugm-3,94.00000,R,ugm-3
05-01-2012,15:00,30.00000,R,ugm-3,38.00000,R,ugm-3,84.00000,R,ugm-3
05-01-2012,16:00,34.00000,R,ugm-3,40.00000,R,ugm-3,92.00000,R,ugm-3
05-01-2012,17:00,32.00000,R,ugm-3,40.00000,R,ugm-3,90.00000,R,ugm-3
05-01-2012,18:00,35.00000,R,ugm-3,50.00000,R,ugm-3,103.00000,R,ugm-3
05-01-2012,19:00,27.00000,R,ugm-3,36.00000,R,ugm-3,78.00000,R,ugm-3
05-01-2012,20:00,21.00000,R,ugm-3,23.00000,R,ugm-3,55.00000,R,ugm-3
05-01-2012,21:00,12.00000,R,ugm-3,21.00000,R,ugm-3,40.00000,R,ugm-3
05-01-2012,22:00,16.00000,R,ugm-3,13.00000,R,ugm-3,38.00000,R,ugm-3
05-01-2012,23:00,12.00000,R,ugm-3,23.00000,R,ugm-3,42.00000,R,ugm-3
05-01-2012,24:00,6.00000,R,ugm-3,11.00000,R,ugm-3,21.00000,R,ugm-3
06-01-2012,01:00,5.00000,R,ugm-3,10.00000,R,ugm-3,17.00000,R,ugm-3
06-01-2012,02:00,4.00000,R,ugm-3,8.00000,R,ugm-3,13.00000,R,ugm-3
06-01-2012,03:00,5.00000,R,ugm-3,11.00000,R,ugm-3,19.00000,R,ugm-3
06-01-2012,04:00,5.00000,R,ugm-3,13.00000,R,ugm-3,21.00000,R,ugm-3
06-01-2012,05:00,2.00000,R,ugm-3,8.00000,R,ugm-3,11.00000,R,ugm-3
06-01-2012,06:00,12.00000,R,ugm-3,23.00000,R,ugm-3,42.00000,R,ugm-3
06-01-2012,07:00,47.00000,R,ugm-3,42.00000,R,ugm-3,115.00000,R,ugm-3
06-01-2012,08:00,116.00000,R,ugm-3,77.00000,R,ugm-3,254.00000,R,ugm-3
06-01-2012,09:00,92.00000,R,ugm-3,67.00000,R,ugm-3,208.00000,R,ugm-3
06-01-2012,10:00,140.00000,R,ugm-3,71.00000,R,ugm-3,285.00000,R,ugm-3
06-01-2012,11:00,85.00000,R,ugm-3,65.00000,R,ugm-3,195.00000,R,ugm-3
06-01-2012,12:00,107.00000,R,ugm-3,71.00000,R,ugm-3,235.00000,R,ugm-3
06-01-2012,13:00,60.00000,R,ugm-3,50.00000,R,ugm-3,142.00000,R,ugm-3
06-01-2012,14:00,44.00000,R,ugm-3,42.00000,R,ugm-3,109.00000,R,ugm-3
06-01-2012,15:00,32.00000,R,ugm-3,38.00000,R,ugm-3,88.00000,R,ugm-3
06-01-2012,16:00,32.00000,R,ugm-3,44.00000,R,ugm-3,94.00000,R,ugm-3
06-01-2012,17:00,24.00000,R,ugm-3,33.00000,R,ugm-3,69.00000,R,ugm-3
06-01-2012,18:00,40.00000,R,ugm-3,48.00000,R,ugm-3,109.00000,R,ugm-3
06-01-2012,19:00,34.00000,R,ugm-3,40.00000,R,ugm-3,92.00000,R,ugm-3
06-01-2012,20:00,35.00000,R,ugm-3,46.00000,R,ugm-3,99.00000,R,ugm-3
06-01-2012,21:00,25.00000,R,ugm-3,38.00000,R,ugm-3,77.00000,R,ugm-3
06-01-2012,22:00,60.00000,R,ugm-3,61.00000,R,ugm-3,153.00000,R,ugm-3
06-01-2012,23:00,65.00000,R,ugm-3,71.00000,R,ugm-3,170.00000,R,ugm-3
06-01-2012,24:00,64.00000,R,ugm-3,69.00000,R,ugm-3,166.00000,R,ugm-3
07-01-2012,01:00,51.00000,R,ugm-3,69.00000,R,ugm-3,147.00000,R,ugm-3
07-01-2012,02:00,31.00000,R,ugm-3,48.00000,R,ugm-3,96.00000,R,ugm-3
07-01-2012,03:00,29.00000,R,ugm-3,46.00000,R,ugm-3,90.00000,R,ugm-3
07-01-2012,04:00,24.00000,R,ugm-3,44.00000,R,ugm-3,80.00000,R,ugm-3
07-01-2012,05:00,6.00000,R,ugm-3,15.00000,R,ugm-3,25.00000,R,ugm-3
07-01-2012,06:00,6.00000,R,ugm-3,19.00000,R,ugm-3,29.00000,R,ugm-3
07-01-2012,07:00,16.00000,R,ugm-3,27.00000,R,ugm-3,52.00000,R,ugm-3
07-01-2012,08:00,30.00000,R,ugm-3,50.00000,R,ugm-3,96.00000,R,ugm-3
07-01-2012,09:00,40.00000,R,ugm-3,40.00000,R,ugm-3,101.00000,R,ugm-3
07-01-2012,10:00,59.00000,R,ugm-3,48.00000,R,ugm-3,138.00000,R,ugm-3
07-01-2012,11:00,60.00000,R,ugm-3,54.00000,R,ugm-3,145.00000,R,ugm-3
07-01-2012,12:00,61.00000,R,ugm-3,48.00000,R,ugm-3,142.00000,R,ugm-3
07-01-2012,13:00,56.00000,R,ugm-3,59.00000,R,ugm-3,145.00000,R,ugm-3
07-01-2012,14:00,52.00000,R,ugm-3,59.00000,R,ugm-3,140.00000,R,ugm-3
07-01-2012,15:00,61.00000,R,ugm-3,54.00000,R,ugm-3,147.00000,R,ugm-3
07-01-2012,16:00,50.00000,R,ugm-3,55.00000,R,ugm-3,132.00000,R,ugm-3
07-01-2012,17:00,35.00000,R,ugm-3,42.00000,R,ugm-3,96.00000,R,ugm-3
07-01-2012,18:00,37.00000,R,ugm-3,46.00000,R,ugm-3,103.00000,R,ugm-3
07-01-2012,19:00,40.00000,R,ugm-3,42.00000,R,ugm-3,103.00000,R,ugm-3
07-01-2012,20:00,20.00000,R,ugm-3,31.00000,R,ugm-3,61.00000,R,ugm-3
07-01-2012,21:00,14.00000,R,ugm-3,25.00000,R,ugm-3,46.00000,R,ugm-3
07-01-2012,22:00,14.00000,R,ugm-3,27.00000,R,ugm-3,48.00000,R,ugm-3
07-01-2012,23:00,17.00000,R,ugm-3,23.00000,R,ugm-3,50.00000,R,ugm-3
07-01-2012,24:00,24.00000,R,ugm-3,27.00000,R,ugm-3,63.00000,R,ugm-3
08-01-2012,01:00,24.00000,R,ugm-3,33.00000,R,ugm-3,69.00000,R,ugm-3
08-01-2012,02:00,21.00000,R,ugm-3,36.00000,R,ugm-3,69.00000,R,ugm-3
08-01-2012,03:00,36.00000,R,ugm-3,46.00000,R,ugm-3,101.00000,R,ugm-3
08-01-2012,04:00,24.00000,R,ugm-3,38.00000,R,ugm-3,75.00000,R,ugm-3
08-01-2012,05:00,11.00000,R,ugm-3,23.00000,R,ugm-3,40.00000,R,ugm-3
08-01-2012,06:00,14.00000,R,ugm-3,34.00000,R,ugm-3,55.00000,R,ugm-3
08-01-2012,07:00,12.00000,R,ugm-3,34.00000,R,ugm-3,54.00000,R,ugm-3
08-01-2012,08:00,24.00000,R,ugm-3,46.00000,R,ugm-3,82.00000,R,ugm-3
08-01-2012,09:00,26.00000,R,ugm-3,36.00000,R,ugm-3,77.00000,R,ugm-3
08-01-2012,10:00,42.00000,R,ugm-3,57.00000,R,ugm-3,122.00000,R,ugm-3
08-01-2012,11:00,44.00000,R,ugm-3,50.00000,R,ugm-3,117.00000,R,ugm-3
08-01-2012,12:00,47.00000,R,ugm-3,54.00000,R,ugm-3,126.00000,R,ugm-3
08-01-2012,13:00,44.00000,R,ugm-3,55.00000,R,ugm-3,122.00000,R,ugm-3
08-01-2012,14:00,26.00000,R,ugm-3,36.00000,R,ugm-3,77.00000,R,ugm-3
08-01-2012,15:00,26.00000,R,ugm-3,36.00000,R,ugm-3,77.00000,R,ugm-3
08-01-2012,16:00,60.00000,R,ugm-3,61.00000,R,ugm-3,153.00000,R,ugm-3
08-01-2012,17:00,42.00000,R,ugm-3,44.00000,R,ugm-3,109.00000,R,ugm-3
08-01-2012,18:00,17.00000,R,ugm-3,29.00000,R,ugm-3,55.00000,R,ugm-3
08-01-2012,19:00,26.00000,R,ugm-3,38.00000,R,ugm-3,78.00000,R,ugm-3
08-01-2012,20:00,76.00000,R,ugm-3,54.00000,R,ugm-3,170.00000,R,ugm-3
08-01-2012,21:00,30.00000,R,ugm-3,44.00000,R,ugm-3,90.00000,R,ugm-3
08-01-2012,22:00,30.00000,R,ugm-3,42.00000,R,ugm-3,88.00000,R,ugm-3
08-01-2012,23:00,12.00000,R,ugm-3,25.00000,R,ugm-3,44.00000,R,ugm-3
08-01-2012,24:00,45.00000,R,ugm-3,48.00000,R,ugm-3,117.00000,R,ugm-3
09-01-2012,01:00,15.00000,R,ugm-3,21.00000,R,ugm-3,44.00000,R,ugm-3
09-01-2012,02:00,2.00000,R,ugm-3,8.00000,R,ugm-3,11.00000,R,ugm-3
09-01-2012,03:00,5.00000,R,ugm-3,13.00000,R,ugm-3,21.00000,R,ugm-3
09-01-2012,04:00,1.00000,R,ugm-3,6.00000,R,ugm-3,8.00000,R,ugm-3
09-01-2012,05:00,1.00000,R,ugm-3,6.00000,R,ugm-3,8.00000,R,ugm-3
09-01-2012,06:00,7.00000,R,ugm-3,15.00000,R,ugm-3,27.00000,R,ugm-3
09-01-2012,07:00,76.00000,R,ugm-3,55.00000,R,ugm-3,172.00000,R,ugm-3
09-01-2012,08:00,155.00000,R,ugm-3,90.00000,R,ugm-3,327.00000,R,ugm-3
09-01-2012,09:00,162.00000,R,ugm-3,92.00000,R,ugm-3,340.00000,R,ugm-3
09-01-2012,10:00,100.00000,R,ugm-3,69.00000,R,ugm-3,222.00000,R,ugm-3
09-01-2012,11:00,60.00000,R,ugm-3,52.00000,R,ugm-3,143.00000,R,ugm-3
09-01-2012,12:00,74.00000,R,ugm-3,63.00000,R,ugm-3,176.00000,R,ugm-3
09-01-2012,13:00,76.00000,R,ugm-3,59.00000,R,ugm-3,176.00000,R,ugm-3
09-01-2012,14:00,80.00000,R,ugm-3,71.00000,R,ugm-3,193.00000,R,ugm-3
09-01-2012,15:00,135.00000,R,ugm-3,75.00000,R,ugm-3,281.00000,R,ugm-3
09-01-2012,16:00,130.00000,R,ugm-3,88.00000,R,ugm-3,287.00000,R,ugm-3
09-01-2012,17:00,190.00000,R,ugm-3,103.00000,R,ugm-3,394.00000,R,ugm-3
09-01-2012,18:00,160.00000,R,ugm-3,98.00000,R,ugm-3,342.00000,R,ugm-3
09-01-2012,19:00,106.00000,R,ugm-3,92.00000,R,ugm-3,254.00000,R,ugm-3
09-01-2012,20:00,54.00000,R,ugm-3,57.00000,R,ugm-3,140.00000,R,ugm-3
09-01-2012,21:00,29.00000,R,ugm-3,31.00000,R,ugm-3,75.00000,R,ugm-3
09-01-2012,22:00,7.00000,R,ugm-3,23.00000,R,ugm-3,34.00000,R,ugm-3
09-01-2012,23:00,9.00000,R,ugm-3,23.00000,R,ugm-3,36.00000,R,ugm-3
09-01-2012,24:00,7.00000,R,ugm-3,19.00000,R,ugm-3,31.00000,R,ugm-3
10-01-2012,01:00,5.00000,R,ugm-3,10.00000,R,ugm-3,17.00000,R,ugm-3
10-01-2012,02:00,1.00000,R,ugm-3,2.00000,R,ugm-3,4.00000,R,ugm-3
10-01-2012,03:00,1.00000,R,ugm-3,8.00000,R,ugm-3,10.00000,R,ugm-3
10-01-2012,04:00,1.00000,R,ugm-3,4.00000,R,ugm-3,6.00000,R,ugm-3
10-01-2012,05:00,1.00000,R,ugm-3,6.00000,R,ugm-3,8.00000,R,ugm-3
10-01-2012,06:00,5.00000,R,ugm-3,13.00000,R,ugm-3,21.00000,R,ugm-3
10-01-2012,07:00,15.00000,R,ugm-3,25.00000,R,ugm-3,48.00000,R,ugm-3
10-01-2012,08:00,40.00000,R,ugm-3,36.00000,R,ugm-3,98.00000,R,ugm-3
10-01-2012,09:00,50.00000,R,ugm-3,50.00000,R,ugm-3,126.00000,R,ugm-3
10-01-2012,10:00,44.00000,R,ugm-3,50.00000,R,ugm-3,117.00000,R,ugm-3
10-01-2012,11:00,31.00000,R,ugm-3,44.00000,R,ugm-3,92.00000,R,ugm-3
10-01-2012,12:00,37.00000,R,ugm-3,40.00000,R,ugm-3,98.00000,R,ugm-3
10-01-2012,13:00,71.00000,R,ugm-3,59.00000,R,ugm-3,168.00000,R,ugm-3
10-01-2012,14:00,51.00000,R,ugm-3,52.00000,R,ugm-3,130.00000,R,ugm-3
10-01-2012,15:00,54.00000,R,ugm-3,57.00000,R,ugm-3,140.00000,R,ugm-3
10-01-2012,16:00,60.00000,R,ugm-3,59.00000,R,ugm-3,151.00000,R,ugm-3
10-01-2012,17:00,40.00000,R,ugm-3,38.00000,R,ugm-3,99.00000,R,ugm-3
10-01-2012,18:00,95.00000,R,ugm-3,63.00000,R,ugm-3,208.00000,R,ugm-3
10-01-2012,19:00,69.00000,R,ugm-3,50.00000,R,ugm-3,155.00000,R,ugm-3
10-01-2012,20:00,27.00000,R,ugm-3,42.00000,R,ugm-3,84.00000,R,ugm-3
10-01-2012,21:00,32.00000,R,ugm-3,44.00000,R,ugm-3,94.00000,R,ugm-3
10-01-2012,22:00,27.00000,R,ugm-3,44.00000,R,ugm-3,86.00000,R,ugm-3
10-01-2012,23:00,21.00000,R,ugm-3,31.00000,R,ugm-3,63.00000,R,ugm-3
10-01-2012,24:00,36.00000,R,ugm-3,48.00000,R,ugm-3,103.00000,R,ugm-3
11-01-2012,01:00,22.00000,R,ugm-3,38.00000,R,ugm-3,73.00000,R,ugm-3
11-01-2012,02:00,4.00000,R,ugm-3,21.00000,R,ugm-3,27.00000,R,ugm-3
11-01-2012,03:00,2.00000,R,ugm-3,10.00000,R,ugm-3,13.00000,R,ugm-3
11-01-2012,04:00,2.00000,R,ugm-3,21.00000,R,ugm-3,25.00000,R,ugm-3
11-01-2012,05:00,10.00000,R,ugm-3,34.00000,R,ugm-3,50.00000,R,ugm-3
11-01-2012,06:00,50.00000,R,ugm-3,50.00000,R,ugm-3,126.00000,R,ugm-3
11-01-2012,07:00,111.00000,R,ugm-3,75.00000,R,ugm-3,245.00000,R,ugm-3
11-01-2012,08:00,195.00000,R,ugm-3,96.00000,R,ugm-3,394.00000,R,ugm-3
11-01-2012,09:00,254.00000,R,ugm-3,119.00000,R,ugm-3,509.00000,R,ugm-3
11-01-2012,10:00,228.00000,R,ugm-3,90.00000,R,ugm-3,440.00000,R,ugm-3
11-01-2012,11:00,186.00000,R,ugm-3,109.00000,R,ugm-3,394.00000,R,ugm-3
11-01-2012,12:00,135.00000,R,ugm-3,73.00000,R,ugm-3,279.00000,R,ugm-3
11-01-2012,13:00,160.00000,R,ugm-3,98.00000,R,ugm-3,342.00000,R,ugm-3
11-01-2012,14:00,97.00000,R,ugm-3,69.00000,R,ugm-3,218.00000,R,ugm-3
11-01-2012,15:00,52.00000,R,ugm-3,59.00000,R,ugm-3,140.00000,R,ugm-3
11-01-2012,16:00,41.00000,R,ugm-3,50.00000,R,ugm-3,113.00000,R,ugm-3
11-01-2012,17:00,26.00000,R,ugm-3,33.00000,R,ugm-3,73.00000,R,ugm-3
11-01-2012,18:00,29.00000,R,ugm-3,42.00000,R,ugm-3,86.00000,R,ugm-3
11-01-2012,19:00,22.00000,R,ugm-3,25.00000,R,ugm-3,59.00000,R,ugm-3
11-01-2012,20:00,15.00000,R,ugm-3,25.00000,R,ugm-3,48.00000,R,ugm-3
11-01-2012,21:00,7.00000,R,ugm-3,17.00000,R,ugm-3,29.00000,R,ugm-3
11-01-2012,22:00,6.00000,R,ugm-3,11.00000,R,ugm-3,21.00000,R,ugm-3
11-01-2012,23:00,5.00000,R,ugm-3,11.00000,R,ugm-3,19.00000,R,ugm-3
11-01-2012,24:00,5.00000,R,ugm-3,10.00000,R,ugm-3,17.00000,R,ugm-3
12-01-2012,01:00,2.00000,R,ugm-3,8.00000,R,ugm-3,11.00000,R,ugm-3
12-01-2012,02:00,5.00000,R,ugm-3,15.00000,R,ugm-3,23.00000,R,ugm-3
12-01-2012,03:00,5.00000,R,ugm-3,11.00000,R,ugm-3,19.00000,R,ugm-3
12-01-2012,04:00,2.00000,R,ugm-3,6.00000,R,ugm-3,10.00000,R,ugm-3
12-01-2012,05:00,2.00000,R,ugm-3,6.00000,R,ugm-3,10.00000,R,ugm-3
12-01-2012,06:00,5.00000,R,ugm-3,11.00000,R,ugm-3,19.00000,R,ugm-3
12-01-2012,07:00,20.00000,R,ugm-3,33.00000,R,ugm-3,63.00000,R,ugm-3
12-01-2012,08:00,50.00000,R,ugm-3,59.00000,R,ugm-3,136.00000,R,ugm-3
12-01-2012,09:00,42.00000,R,ugm-3,46.00000,R,ugm-3,111.00000,R,ugm-3
12-01-2012,10:00,46.00000,R,ugm-3,59.00000,R,ugm-3,130.00000,R,ugm-3
12-01-2012,11:00,52.00000,R,ugm-3,54.00000,R,ugm-3,134.00000,R,ugm-3
12-01-2012,12:00,37.00000,R,ugm-3,44.00000,R,ugm-3,101.00000,R,ugm-3
12-01-2012,13:00,34.00000,R,ugm-3,36.00000,R,ugm-3,88.00000,R,ugm-3
12-01-2012,14:00,46.00000,R,ugm-3,42.00000,R,ugm-3,113.00000,R,ugm-3
12-01-2012,15:00,56.00000,R,ugm-3,46.00000,R,ugm-3,132.00000,R,ugm-3
12-01-2012,16:00,51.00000,R,ugm-3,50.00000,R,ugm-3,128.00000,R,ugm-3
12-01-2012,17:00,77.00000,R,ugm-3,78.00000,R,ugm-3,197.00000,R,ugm-3
12-01-2012,18:00,85.00000,R,ugm-3,80.00000,R,ugm-3,210.00000,R,ugm-3
12-01-2012,19:00,76.00000,R,ugm-3,65.00000,R,ugm-3,182.00000,R,ugm-3
12-01-2012,20:00,41.00000,R,ugm-3,42.00000,R,ugm-3,105.00000,R,ugm-3
12-01-2012,21:00,16.00000,R,ugm-3,27.00000,R,ugm-3,52.00000,R,ugm-3
12-01-2012,22:00,17.00000,R,ugm-3,27.00000,R,ugm-3,54.00000,R,ugm-3
12-01-2012,23:00,25.00000,R,ugm-3,38.00000,R,ugm-3,77.00000,R,ugm-3
12-01-2012,24:00,26.00000,R,ugm-3,38.00000,R,ugm-3,78.00000,R,ugm-3
13-01-2012,01:00,20.00000,R,ugm-3,34.00000,R,ugm-3,65.00000,R,ugm-3
13-01-2012,02:00,7.00000,R,ugm-3,23.00000,R,ugm-3,34.00000,R,ugm-3
13-01-2012,03:00,9.00000,R,ugm-3,23.00000,R,ugm-3,36.00000,R,ugm-3
13-01-2012,04:00,1.00000,R,ugm-3,11.00000,R,ugm-3,13.00000,R,ugm-3
13-01-2012,05:00,5.00000,R,ugm-3,17.00000,R,ugm-3,25.00000,R,ugm-3
13-01-2012,06:00,12.00000,R,ugm-3,29.00000,R,ugm-3,48.00000,R,ugm-3
13-01-2012,07:00,31.00000,R,ugm-3,42.00000,R,ugm-3,90.00000,R,ugm-3
13-01-2012,08:00,123.00000,R,ugm-3,78.00000,R,ugm-3,268.00000,R,ugm-3
13-01-2012,09:00,156.00000,R,ugm-3,92.00000,R,ugm-3,331.00000,R,ugm-3
13-01-2012,10:00,187.00000,R,ugm-3,105.00000,R,ugm-3,392.00000,R,ugm-3
13-01-2012,11:00,127.00000,R,ugm-3,78.00000,R,ugm-3,273.00000,R,ugm-3
13-01-2012,12:00,111.00000,R,ugm-3,94.00000,R,ugm-3,264.00000,R,ugm-3
13-01-2012,13:00,146.00000,R,ugm-3,80.00000,R,ugm-3,304.00000,R,ugm-3
13-01-2012,14:00,136.00000,R,ugm-3,82.00000,R,ugm-3,291.00000,R,ugm-3
13-01-2012,15:00,166.00000,R,ugm-3,92.00000,R,ugm-3,346.00000,R,ugm-3
13-01-2012,16:00,193.00000,R,ugm-3,82.00000,R,ugm-3,379.00000,R,ugm-3
13-01-2012,17:00,160.00000,R,ugm-3,80.00000,R,ugm-3,325.00000,R,ugm-3
13-01-2012,18:00,180.00000,R,ugm-3,80.00000,R,ugm-3,356.00000,R,ugm-3
13-01-2012,19:00,133.00000,R,ugm-3,92.00000,R,ugm-3,296.00000,R,ugm-3
13-01-2012,20:00,173.00000,R,ugm-3,103.00000,R,ugm-3,369.00000,R,ugm-3
13-01-2012,21:00,161.00000,R,ugm-3,101.00000,R,ugm-3,348.00000,R,ugm-3
13-01-2012,22:00,90.00000,R,ugm-3,73.00000,R,ugm-3,210.00000,R,ugm-3
13-01-2012,23:00,59.00000,R,ugm-3,59.00000,R,ugm-3,149.00000,R,ugm-3
13-01-2012,24:00,51.00000,R,ugm-3,52.00000,R,ugm-3,130.00000,R,ugm-3
14-01-2012,01:00,40.00000,R,ugm-3,44.00000,R,ugm-3,105.00000,R,ugm-3
14-01-2012,02:00,24.00000,R,ugm-3,33.00000,R,ugm-3,69.00000,R,ugm-3
14-01-2012,03:00,31.00000,R,ugm-3,38.00000,R,ugm-3,86.00000,R,ugm-3
14-01-2012,04:00,32.00000,R,ugm-3,40.00000,R,ugm-3,90.00000,R,ugm-3
14-01-2012,05:00,14.00000,R,ugm-3,29.00000,R,ugm-3,50.00000,R,ugm-3
14-01-2012,06:00,12.00000,R,ugm-3,31.00000,R,ugm-3,50.00000,R,ugm-3
14-01-2012,07:00,41.00000,R,ugm-3,44.00000,R,ugm-3,107.00000,R,ugm-3
14-01-2012,08:00,56.00000,R,ugm-3,59.00000,R,ugm-3,145.00000,R,ugm-3
14-01-2012,09:00,102.00000,R,ugm-3,65.00000,R,ugm-3,222.00000,R,ugm-3
14-01-2012,10:00,106.00000,R,ugm-3,59.00000,R,ugm-3,222.00000,R,ugm-3
14-01-2012,11:00,87.00000,R,ugm-3,55.00000,R,ugm-3,189.00000,R,ugm-3
14-01-2012,12:00,106.00000,R,ugm-3,80.00000,R,ugm-3,243.00000,R,ugm-3
14-01-2012,13:00,99.00000,R,ugm-3,63.00000,R,ugm-3,214.00000,R,ugm-3
14-01-2012,14:00,95.00000,R,ugm-3,71.00000,R,ugm-3,216.00000,R,ugm-3
14-01-2012,15:00,86.00000,R,ugm-3,61.00000,R,ugm-3,193.00000,R,ugm-3
14-01-2012,16:00,77.00000,R,ugm-3,61.00000,R,ugm-3,180.00000,R,ugm-3
14-01-2012,17:00,155.00000,R,ugm-3,86.00000,R,ugm-3,323.00000,R,ugm-3
14-01-2012,18:00,218.00000,R,ugm-3,105.00000,R,ugm-3,440.00000,R,ugm-3
14-01-2012,19:00,198.00000,R,ugm-3,101.00000,R,ugm-3,405.00000,R,ugm-3
14-01-2012,20:00,161.00000,R,ugm-3,78.00000,R,ugm-3,325.00000,R,ugm-3
14-01-2012,21:00,97.00000,R,ugm-3,67.00000,R,ugm-3,216.00000,R,ugm-3
14-01-2012,22:00,61.00000,R,ugm-3,54.00000,R,ugm-3,147.00000,R,ugm-3
14-01-2012,23:00,81.00000,R,ugm-3,55.00000,R,ugm-3,180.00000,R,ugm-3
14-01-2012,24:00,47.00000,R,ugm-3,48.00000,R,ugm-3,120.00000,R,ugm-3
15-01-2012,01:00,47.00000,R,ugm-3,42.00000,R,ugm-3,115.00000,R,ugm-3
15-01-2012,02:00,41.00000,R,ugm-3,42.00000,R,ugm-3,105.00000,R,ugm-3
15-01-2012,03:00,20.00000,R,ugm-3,38.00000,R,ugm-3,69.00000,R,ugm-3
15-01-2012,04:00,10.00000,R,ugm-3,29.00000,R,ugm-3,44.00000,R,ugm-3
15-01-2012,05:00,5.00000,R,ugm-3,21.00000,R,ugm-3,29.00000,R,ugm-3
15-01-2012,06:00,2.00000,R,ugm-3,21.00000,R,ugm-3,25.00000,R,ugm-3
15-01-2012,07:00,21.00000,R,ugm-3,40.00000,R,ugm-3,73.00000,R,ugm-3
15-01-2012,08:00,16.00000,R,ugm-3,42.00000,R,ugm-3,67.00000,R,ugm-3
15-01-2012,09:00,22.00000,R,ugm-3,38.00000,R,ugm-3,73.00000,R,ugm-3
15-01-2012,10:00,29.00000,R,ugm-3,50.00000,R,ugm-3,94.00000,R,ugm-3
15-01-2012,11:00,27.00000,R,ugm-3,40.00000,R,ugm-3,82.00000,R,ugm-3
15-01-2012,12:00,12.00000,R,ugm-3,23.00000,R,ugm-3,42.00000,R,ugm-3